Time,TemperatureF,DewpointF,PressureIn,WindDirection,WindDirectionDegrees,WindSpeedMPH,WindSpeedGustMPH,Humidity,HourlyPrecipIn,Conditions,Clouds,dailyrainin,SoftwareType,DateUTC
2013-11-21 00:03:00,19.3,0.4,30.43,NW,323,0.0,0.0,43,0.00,,,0.00,Wunderground v.1.15,2013-11-21 08:03:00,
2013-11-21 00:09:00,19.4,0.0,30.43,NW,323,0.0,1.0,42,0.00,,,0.00,Wunderground v.1.15,2013-11-21 08:09:00,
2013-11-21 00:15:00,19.3,0.4,30.43,NW,323,0.0,1.0,43,0.00,,,0.00,Wunderground v.1.15,2013-11-21 08:15:00,
2013-11-21 00:21:00,19.3,0.4,30.43,NW,323,0.0,1.0,43,0.00,,,0.00,Wunderground v.1.15,2013-11-21 08:21:00,
2013-11-21 00:27:00,19.0,1.1,30.43,NW,323,0.0,1.0,45,0.00,,,0.00,Wunderground v.1.15,2013-11-21 08:27:00,
2013-11-21 00:33:00,18.6,0.7,30.44,NW,323,0.0,0.0,45,0.00,,,0.00,Wunderground v.1.15,2013-11-21 08:33:00,
2013-11-21 00:39:00,18.3,0.5,30.44,NW,323,0.0,0.0,45,0.00,,,0.00,Wunderground v.1.15,2013-11-21 08:39:00,
2013-11-21 00:45:00,18.0,0.7,30.44,NW,323,0.0,0.0,46,0.00,,,0.00,Wunderground v.1.15,2013-11-21 08:45:00,
2013-11-21 00:51:00,17.7,1.7,30.44,NW,323,0.0,0.0,49,0.00,,,0.00,Wunderground v.1.15,2013-11-21 08:51:00,
2013-11-21 00:57:00,17.6,0.8,30.44,NW,323,0.0,0.0,47,0.00,,,0.00,Wunderground v.1.15,2013-11-21 08:57:00,
2013-11-21 01:03:00,17.6,0.8,30.44,NW,323,0.0,1.0,47,0.00,,,0.00,Wunderground v.1.15,2013-11-21 09:03:00,
2013-11-21 01:09:00,17.5,1.1,30.44,NW,323,0.0,0.0,48,0.00,,,0.00,Wunderground v.1.15,2013-11-21 09:09:00,
2013-11-21 01:15:00,17.1,2.1,30.44,NW,323,0.0,0.0,51,0.00,,,0.00,Wunderground v.1.15,2013-11-21 09:15:00,
2013-11-21 01:21:00,16.8,0.9,30.45,NW,323,0.0,0.0,49,0.00,,,0.00,Wunderground v.1.15,2013-11-21 09:21:00,
2013-11-21 01:27:00,16.7,0.8,30.45,NW,323,0.0,0.0,49,0.00,,,0.00,Wunderground v.1.15,2013-11-21 09:27:00,
2013-11-21 01:33:00,16.6,0.7,30.46,NW,323,0.0,0.0,49,0.00,,,0.00,Wunderground v.1.15,2013-11-21 09:33:00,
2013-11-21 01:39:00,16.4,0.5,30.46,NW,323,0.0,0.0,49,0.00,,,0.00,Wunderground v.1.15,2013-11-21 09:39:00,
2013-11-21 01:45:00,16.3,0.9,30.47,NW,323,0.0,0.0,50,0.00,,,0.00,Wunderground v.1.15,2013-11-21 09:45:00,
2013-11-21 01:51:00,16.3,0.5,30.47,NW,323,0.0,0.0,49,0.00,,,0.00,Wunderground v.1.15,2013-11-21 09:51:00,
2013-11-21 01:57:00,16.3,0.0,30.47,NW,323,0.0,0.0,48,0.00,,,0.00,Wunderground v.1.15,2013-11-21 09:57:00,
2013-11-21 02:03:00,16.4,0.1,30.47,NW,323,0.0,0.0,48,0.00,,,0.00,Wunderground v.1.15,2013-11-21 10:03:00,
2013-11-21 02:09:00,16.2,-0.1,30.48,NW,323,0.0,0.0,48,0.00,,,0.00,Wunderground v.1.15,2013-11-21 10:09:00,
2013-11-21 02:15:00,15.9,0.1,30.48,NW,323,0.0,0.0,49,0.00,,,0.00,Wunderground v.1.15,2013-11-21 10:15:00,
2013-11-21 02:21:00,15.6,0.2,30.49,NW,323,0.0,0.0,50,0.00,,,0.00,Wunderground v.1.15,2013-11-21 10:21:00,
2013-11-21 02:27:00,15.4,0.5,30.49,NW,323,0.0,0.0,51,0.00,,,0.00,Wunderground v.1.15,2013-11-21 10:27:00,
2013-11-21 02:33:00,15.3,0.4,30.49,NW,323,0.0,0.0,51,0.00,,,0.00,Wunderground v.1.15,2013-11-21 10:33:00,
2013-11-21 02:39:00,15.5,1.0,30.49,NW,323,0.0,0.0,52,0.00,,,0.00,Wunderground v.1.15,2013-11-21 10:39:00,
2013-11-21 02:45:00,15.7,1.6,30.50,NW,323,0.0,0.0,53,0.00,,,0.00,Wunderground v.1.15,2013-11-21 10:45:00,
2013-11-21 02:51:00,15.6,0.2,30.50,NW,323,0.0,0.0,50,0.00,,,0.00,Wunderground v.1.15,2013-11-21 10:51:00,
2013-11-21 02:57:00,15.7,0.3,30.50,NW,323,0.0,0.0,50,0.00,,,0.00,Wunderground v.1.15,2013-11-21 10:57:00,
2013-11-21 03:03:00,15.7,0.7,30.50,NW,323,0.0,1.0,51,0.00,,,0.00,Wunderground v.1.15,2013-11-21 11:03:00,
2013-11-21 03:09:00,15.1,1.0,30.50,NW,323,0.0,0.0,53,0.00,,,0.00,Wunderground v.1.15,2013-11-21 11:09:00,
2013-11-21 03:15:00,14.9,0.8,30.51,NW,323,0.0,0.0,53,0.00,,,0.00,Wunderground v.1.15,2013-11-21 11:15:00,
2013-11-21 03:21:00,14.6,0.9,30.51,NW,323,0.0,0.0,54,0.00,,,0.00,Wunderground v.1.15,2013-11-21 11:21:00,
2013-11-21 03:27:00,14.4,0.8,30.52,NW,323,0.0,0.0,54,0.00,,,0.00,Wunderground v.1.15,2013-11-21 11:27:00,
2013-11-21 03:33:00,14.2,0.6,30.52,NW,323,0.0,0.0,54,0.00,,,0.00,Wunderground v.1.15,2013-11-21 11:33:00,
2013-11-21 03:39:00,14.2,1.0,30.52,NW,323,0.0,0.0,55,0.00,,,0.00,Wunderground v.1.15,2013-11-21 11:39:00,
2013-11-21 03:45:00,14.0,1.2,30.53,NW,323,0.0,0.0,56,0.00,,,0.00,Wunderground v.1.15,2013-11-21 11:45:00,
2013-11-21 03:51:00,14.4,1.2,30.53,NW,323,0.0,1.0,55,0.00,,,0.00,Wunderground v.1.15,2013-11-21 11:51:00,
2013-11-21 03:57:00,14.4,1.9,30.53,NW,323,1.0,1.0,57,0.00,,,0.00,Wunderground v.1.15,2013-11-21 11:57:00,
2013-11-21 04:03:00,14.4,1.5,30.53,NW,323,0.0,1.0,56,0.00,,,0.00,Wunderground v.1.15,2013-11-21 12:03:00,
2013-11-21 04:09:00,14.4,1.2,30.54,NW,323,0.0,1.0,55,0.00,,,0.00,Wunderground v.1.15,2013-11-21 12:09:00,
2013-11-21 04:15:00,14.4,1.2,30.54,NW,323,0.0,0.0,55,0.00,,,0.00,Wunderground v.1.15,2013-11-21 12:15:00,
2013-11-21 04:21:00,14.4,1.2,30.54,NW,323,0.0,0.0,55,0.00,,,0.00,Wunderground v.1.15,2013-11-21 12:21:00,
2013-11-21 04:27:00,14.5,1.6,30.54,NW,323,0.0,0.0,56,0.00,,,0.00,Wunderground v.1.15,2013-11-21 12:27:00,
2013-11-21 04:33:00,14.6,1.3,30.55,NW,323,0.0,0.0,55,0.00,,,0.00,Wunderground v.1.15,2013-11-21 12:33:00,
2013-11-21 04:39:00,14.7,1.0,30.55,NW,323,0.0,0.0,54,0.00,,,0.00,Wunderground v.1.15,2013-11-21 12:39:00,
2013-11-21 04:45:00,14.4,0.8,30.56,NW,323,0.0,0.0,54,0.00,,,0.00,Wunderground v.1.15,2013-11-21 12:45:00,
2013-11-21 04:51:00,13.9,0.7,30.56,NW,323,0.0,0.0,55,0.00,,,0.00,Wunderground v.1.15,2013-11-21 12:51:00,
2013-11-21 04:57:00,13.3,0.9,30.56,NW,323,0.0,0.0,57,0.00,,,0.00,Wunderground v.1.15,2013-11-21 12:57:00,
2013-11-21 05:03:00,12.8,1.9,30.56,NW,323,0.0,0.0,61,0.00,,,0.00,Wunderground v.1.15,2013-11-21 13:03:00,
2013-11-21 05:09:00,13.0,1.0,30.57,NW,323,0.0,0.0,58,0.00,,,0.00,Wunderground v.1.15,2013-11-21 13:09:00,
2013-11-21 05:15:00,13.2,0.8,30.57,NW,323,0.0,0.0,57,0.00,,,0.00,Wunderground v.1.15,2013-11-21 13:15:00,
2013-11-21 05:21:00,13.1,0.7,30.57,NW,323,0.0,0.0,57,0.00,,,0.00,Wunderground v.1.15,2013-11-21 13:21:00,
2013-11-21 05:27:00,12.8,0.4,30.57,NW,323,0.0,1.0,57,0.00,,,0.00,Wunderground v.1.15,2013-11-21 13:27:00,
2013-11-21 05:33:00,12.9,0.5,30.57,NW,323,0.0,0.0,57,0.00,,,0.00,Wunderground v.1.15,2013-11-21 13:33:00,
2013-11-21 05:39:00,12.8,0.8,30.57,NW,323,0.0,0.0,58,0.00,,,0.00,Wunderground v.1.15,2013-11-21 13:39:00,
2013-11-21 05:45:00,12.5,0.9,30.57,NW,323,0.0,0.0,59,0.00,,,0.00,Wunderground v.1.15,2013-11-21 13:45:00,
2013-11-21 05:51:00,12.5,1.6,30.57,NW,323,0.0,0.0,61,0.00,,,0.00,Wunderground v.1.15,2013-11-21 13:51:00,
2013-11-21 05:57:00,12.7,1.1,30.57,NW,323,0.0,0.0,59,0.00,,,0.00,Wunderground v.1.15,2013-11-21 13:57:00,
2013-11-21 06:03:00,13.2,0.8,30.57,NW,323,0.0,0.0,57,0.00,,,0.00,Wunderground v.1.15,2013-11-21 14:03:00,
2013-11-21 06:09:00,13.6,1.5,30.58,NW,323,0.0,0.0,58,0.00,,,0.00,Wunderground v.1.15,2013-11-21 14:09:00,
2013-11-21 06:15:00,13.2,0.4,30.58,NW,323,0.0,0.0,56,0.00,,,0.00,Wunderground v.1.15,2013-11-21 14:15:00,
2013-11-21 06:21:00,12.3,0.3,30.58,NW,323,0.0,1.0,58,0.00,,,0.00,Wunderground v.1.15,2013-11-21 14:21:00,
2013-11-21 06:27:00,12.0,0.4,30.59,NW,323,0.0,1.0,59,0.00,,,0.00,Wunderground v.1.15,2013-11-21 14:27:00,
2013-11-21 06:33:00,11.6,0.0,30.59,NW,323,0.0,0.0,59,0.00,,,0.00,Wunderground v.1.15,2013-11-21 14:33:00,
2013-11-21 06:39:00,11.6,0.0,30.59,NW,323,0.0,0.0,59,0.00,,,0.00,Wunderground v.1.15,2013-11-21 14:39:00,
2013-11-21 06:45:00,11.8,-0.2,30.60,NW,323,0.0,0.0,58,0.00,,,0.00,Wunderground v.1.15,2013-11-21 14:45:00,
2013-11-21 06:51:00,12.2,0.2,30.60,NW,323,0.0,2.0,58,0.00,,,0.00,Wunderground v.1.15,2013-11-21 14:51:00,
2013-11-21 06:57:00,12.6,0.2,30.60,NW,323,0.0,2.0,57,0.00,,,0.00,Wunderground v.1.15,2013-11-21 14:57:00,
2013-11-21 07:03:00,13.0,0.6,30.60,NW,323,1.0,1.0,57,0.00,,,0.00,Wunderground v.1.15,2013-11-21 15:03:00,
2013-11-21 07:09:00,13.2,0.4,30.61,NW,323,0.0,1.0,56,0.00,,,0.00,Wunderground v.1.15,2013-11-21 15:09:00,
2013-11-21 07:15:00,13.3,0.5,30.61,NW,323,0.0,1.0,56,0.00,,,0.00,Wunderground v.1.15,2013-11-21 15:15:00,
2013-11-21 07:21:00,13.3,0.5,30.62,NW,323,0.0,0.0,56,0.00,,,0.00,Wunderground v.1.15,2013-11-21 15:21:00,
2013-11-21 07:27:00,13.5,0.7,30.61,NW,323,0.0,0.0,56,0.00,,,0.00,Wunderground v.1.15,2013-11-21 15:27:00,
2013-11-21 07:33:00,13.8,1.0,30.62,NW,323,0.0,0.0,56,0.00,,,0.00,Wunderground v.1.15,2013-11-21 15:33:00,
2013-11-21 07:39:00,14.0,1.5,30.63,NW,323,0.0,0.0,57,0.00,,,0.00,Wunderground v.1.15,2013-11-21 15:39:00,
2013-11-21 07:45:00,13.5,1.8,30.63,NW,323,0.0,0.0,59,0.00,,,0.00,Wunderground v.1.15,2013-11-21 15:45:00,
2013-11-21 07:51:00,12.7,2.1,30.63,NW,323,0.0,0.0,62,0.00,,,0.00,Wunderground v.1.15,2013-11-21 15:51:00,
2013-11-21 07:57:00,12.2,2.3,30.63,NW,323,0.0,0.0,64,0.00,,,0.00,Wunderground v.1.15,2013-11-21 15:57:00,
2013-11-21 08:03:00,12.3,2.8,30.64,NW,323,0.0,0.0,65,0.00,,,0.00,Wunderground v.1.15,2013-11-21 16:03:00,
2013-11-21 08:09:00,12.8,2.9,30.64,NW,323,0.0,0.0,64,0.00,,,0.00,Wunderground v.1.15,2013-11-21 16:09:00,
2013-11-21 08:15:00,13.7,3.8,30.64,NW,323,0.0,0.0,64,0.00,,,0.00,Wunderground v.1.15,2013-11-21 16:15:00,
2013-11-21 08:21:00,14.9,3.9,30.65,NW,323,0.0,0.0,61,0.00,,,0.00,Wunderground v.1.15,2013-11-21 16:21:00,
2013-11-21 08:27:00,16.1,4.3,30.65,NW,323,0.0,0.0,59,0.00,,,0.00,Wunderground v.1.15,2013-11-21 16:27:00,
2013-11-21 08:33:00,16.9,4.7,30.65,NW,323,0.0,0.0,58,0.00,,,0.00,Wunderground v.1.15,2013-11-21 16:33:00,
2013-11-21 08:39:00,17.8,5.9,30.65,NW,323,0.0,0.0,59,0.00,,,0.00,Wunderground v.1.15,2013-11-21 16:39:00,
2013-11-21 08:45:00,19.0,5.9,30.65,NW,323,0.0,1.0,56,0.00,,,0.00,Wunderground v.1.15,2013-11-21 16:45:00,
2013-11-21 08:51:00,20.2,6.2,30.65,NW,323,1.0,1.0,54,0.00,,,0.00,Wunderground v.1.15,2013-11-21 16:51:00,
2013-11-21 08:57:00,21.2,7.1,30.65,NW,323,1.0,1.0,54,0.00,,,0.00,Wunderground v.1.15,2013-11-21 16:57:00,
2013-11-21 09:03:00,22.4,7.4,30.66,NW,323,1.0,1.0,52,0.00,,,0.00,Wunderground v.1.15,2013-11-21 17:03:00,
2013-11-21 09:09:00,23.3,6.0,30.67,NNW,345,1.0,4.0,47,0.00,,,0.00,Wunderground v.1.15,2013-11-21 17:09:00,
2013-11-21 09:15:00,24.0,5.2,30.67,North,5,2.0,3.0,44,0.00,,,0.00,Wunderground v.1.15,2013-11-21 17:15:00,
2013-11-21 09:21:00,24.5,5.7,30.67,North,5,2.0,3.0,44,0.00,,,0.00,Wunderground v.1.15,2013-11-21 17:21:00,
2013-11-21 09:27:00,24.8,4.9,30.67,North,360,2.0,5.0,42,0.00,,,0.00,Wunderground v.1.15,2013-11-21 17:27:00,
2013-11-21 09:33:00,24.9,5.5,30.67,NNW,345,3.0,3.0,43,0.00,,,0.00,Wunderground v.1.15,2013-11-21 17:33:00,
2013-11-21 09:39:00,25.3,5.4,30.67,North,355,3.0,5.0,42,0.00,,,0.00,Wunderground v.1.15,2013-11-21 17:39:00,
2013-11-21 09:45:00,25.4,4.4,30.67,NNE,16,4.0,6.0,40,0.00,,,0.00,Wunderground v.1.15,2013-11-21 17:45:00,
2013-11-21 09:51:00,25.9,4.9,30.67,NW,326,3.0,3.0,40,0.00,,,0.00,Wunderground v.1.15,2013-11-21 17:51:00,
2013-11-21 09:57:00,26.0,4.4,30.67,NNW,332,3.0,5.0,39,0.00,,,0.00,Wunderground v.1.15,2013-11-21 17:57:00,
2013-11-21 10:03:00,26.2,4.6,30.67,NNW,331,3.0,5.0,39,0.00,,,0.00,Wunderground v.1.15,2013-11-21 18:03:00,
2013-11-21 10:09:00,26.3,4.1,30.67,NNW,327,4.0,5.0,38,0.00,,,0.00,Wunderground v.1.15,2013-11-21 18:09:00,
2013-11-21 10:15:00,26.7,3.9,30.67,NW,326,3.0,3.0,37,0.00,,,0.00,Wunderground v.1.15,2013-11-21 18:15:00,
2013-11-21 10:21:00,27.0,3.5,30.67,NW,320,3.0,3.0,36,0.00,,,0.00,Wunderground v.1.15,2013-11-21 18:21:00,
2013-11-21 10:27:00,27.5,4.6,30.67,NNW,330,3.0,5.0,37,0.00,,,0.00,Wunderground v.1.15,2013-11-21 18:27:00,
2013-11-21 10:33:00,27.8,3.6,30.68,NNW,338,3.0,5.0,35,0.00,,,0.00,Wunderground v.1.15,2013-11-21 18:33:00,
2013-11-21 10:39:00,28.1,3.9,30.68,NNW,338,2.0,5.0,35,0.00,,,0.00,Wunderground v.1.15,2013-11-21 18:39:00,
2013-11-21 10:45:00,28.2,3.4,30.68,NNW,343,2.0,3.0,34,0.00,,,0.00,Wunderground v.1.15,2013-11-21 18:45:00,
2013-11-21 10:51:00,28.3,3.5,30.68,NNW,343,2.0,2.0,34,0.00,,,0.00,Wunderground v.1.15,2013-11-21 18:51:00,
2013-11-21 10:57:00,28.7,3.8,30.68,NNW,341,3.0,5.0,34,0.00,,,0.00,Wunderground v.1.15,2013-11-21 18:57:00,
2013-11-21 11:03:00,29.1,3.5,30.68,NNW,341,3.0,3.0,33,0.00,,,0.00,Wunderground v.1.15,2013-11-21 19:03:00,
2013-11-21 11:09:00,29.3,3.7,30.68,NNE,13,3.0,5.0,33,0.00,,,0.00,Wunderground v.1.15,2013-11-21 19:09:00,
2013-11-21 11:15:00,29.8,4.8,30.68,North,5,2.0,4.0,34,0.00,,,0.00,Wunderground v.1.15,2013-11-21 19:15:00,
2013-11-21 11:21:00,30.2,3.1,30.68,NW,320,3.0,3.0,31,0.00,,,0.00,Wunderground v.1.15,2013-11-21 19:21:00,
2013-11-21 11:27:00,30.5,3.4,30.68,NW,321,3.0,7.0,31,0.00,,,0.00,Wunderground v.1.15,2013-11-21 19:27:00,
2013-11-21 11:33:00,30.0,1.5,30.68,NNW,346,4.0,5.0,29,0.00,,,0.00,Wunderground v.1.15,2013-11-21 19:33:00,
2013-11-21 11:39:00,30.0,2.3,30.68,NNW,344,3.0,5.0,30,0.00,,,0.00,Wunderground v.1.15,2013-11-21 19:39:00,
2013-11-21 11:45:00,30.6,3.5,30.67,North,350,3.0,4.0,31,0.00,,,0.00,Wunderground v.1.15,2013-11-21 19:45:00,
2013-11-21 11:51:00,30.5,2.7,30.67,North,355,2.0,2.0,30,0.00,,,0.00,Wunderground v.1.15,2013-11-21 19:51:00,
2013-11-21 11:57:00,31.2,4.0,30.67,North,360,2.0,3.0,31,0.00,,,0.00,Wunderground v.1.15,2013-11-21 19:57:00,
2013-11-21 12:03:00,32.0,4.0,30.67,North,360,1.0,6.0,30,0.00,,,0.00,Wunderground v.1.15,2013-11-21 20:03:00,
2013-11-21 12:09:00,32.0,4.0,30.67,NNW,344,2.0,7.0,30,0.00,,,0.00,Wunderground v.1.15,2013-11-21 20:09:00,
2013-11-21 12:15:00,31.8,3.1,30.67,NNW,343,2.0,3.0,29,0.00,,,0.00,Wunderground v.1.15,2013-11-21 20:15:00,
2013-11-21 12:21:00,31.5,3.6,30.67,North,5,2.0,4.0,30,0.00,,,0.00,Wunderground v.1.15,2013-11-21 20:21:00,
2013-11-21 12:27:00,31.2,4.7,30.66,North,5,2.0,4.0,32,0.00,,,0.00,Wunderground v.1.15,2013-11-21 20:27:00,
2013-11-21 12:33:00,31.6,5.7,30.66,North,5,1.0,2.0,33,0.00,,,0.00,Wunderground v.1.15,2013-11-21 20:33:00,
2013-11-21 12:39:00,31.9,4.6,30.66,North,5,2.0,2.0,31,0.00,,,0.00,Wunderground v.1.15,2013-11-21 20:39:00,
2013-11-21 12:45:00,31.9,4.6,30.66,North,5,2.0,3.0,31,0.00,,,0.00,Wunderground v.1.15,2013-11-21 20:45:00,
2013-11-21 12:51:00,32.4,5.1,30.66,North,5,2.0,2.0,31,0.00,,,0.00,Wunderground v.1.15,2013-11-21 20:51:00,
2013-11-21 12:57:00,32.6,5.3,30.66,North,355,2.0,2.0,31,0.00,,,0.00,Wunderground v.1.15,2013-11-21 20:57:00,
2013-11-21 13:03:00,32.1,4.1,30.66,North,355,2.0,2.0,30,0.00,,,0.00,Wunderground v.1.15,2013-11-21 21:03:00,
2013-11-21 13:09:00,32.3,5.7,30.66,North,349,2.0,3.0,32,0.00,,,0.00,Wunderground v.1.15,2013-11-21 21:09:00,
2013-11-21 13:15:00,32.7,6.0,30.66,North,349,1.0,2.0,32,0.00,,,0.00,Wunderground v.1.15,2013-11-21 21:15:00,
2013-11-21 13:21:00,33.2,5.8,30.66,North,349,1.0,2.0,31,0.00,,,0.00,Wunderground v.1.15,2013-11-21 21:21:00,
2013-11-21 13:27:00,33.3,5.1,30.66,NNW,348,2.0,5.0,30,0.00,,,0.00,Wunderground v.1.15,2013-11-21 21:27:00,
2013-11-21 13:33:00,32.8,4.0,30.66,NNW,329,3.0,3.0,29,0.00,,,0.00,Wunderground v.1.15,2013-11-21 21:33:00,
2013-11-21 13:39:00,32.8,4.7,30.66,NNW,331,3.0,5.0,30,0.00,,,0.00,Wunderground v.1.15,2013-11-21 21:39:00,
2013-11-21 13:45:00,33.1,4.2,30.66,NNW,331,3.0,6.0,29,0.00,,,0.00,Wunderground v.1.15,2013-11-21 21:45:00,
2013-11-21 13:51:00,33.2,5.1,30.65,NNW,335,2.0,3.0,30,0.00,,,0.00,Wunderground v.1.15,2013-11-21 21:51:00,
2013-11-21 13:57:00,32.8,4.0,30.66,NNW,336,3.0,4.0,29,0.00,,,0.00,Wunderground v.1.15,2013-11-21 21:57:00,
2013-11-21 14:03:00,32.7,4.6,30.66,NNW,336,2.0,2.0,30,0.00,,,0.00,Wunderground v.1.15,2013-11-21 22:03:00,
2013-11-21 14:09:00,33.2,5.1,30.66,NNW,336,1.0,2.0,30,0.00,,,0.00,Wunderground v.1.15,2013-11-21 22:09:00,
2013-11-21 14:15:00,33.4,3.7,30.66,NNW,336,1.0,1.0,28,0.00,,,0.00,Wunderground v.1.15,2013-11-21 22:15:00,
2013-11-21 14:21:00,33.3,3.6,30.66,NNW,337,1.0,2.0,28,0.00,,,0.00,Wunderground v.1.15,2013-11-21 22:21:00,
2013-11-21 14:27:00,33.4,4.5,30.66,NNW,337,1.0,3.0,29,0.00,,,0.00,Wunderground v.1.15,2013-11-21 22:27:00,
2013-11-21 14:33:00,33.4,3.7,30.65,NNW,337,2.0,5.0,28,0.00,,,0.00,Wunderground v.1.15,2013-11-21 22:33:00,
2013-11-21 14:39:00,33.4,4.5,30.66,NNW,337,2.0,5.0,29,0.00,,,0.00,Wunderground v.1.15,2013-11-21 22:39:00,
2013-11-21 14:45:00,33.7,4.8,30.66,NNW,337,0.0,1.0,29,0.00,,,0.00,Wunderground v.1.15,2013-11-21 22:45:00,
2013-11-21 14:51:00,34.2,5.2,30.66,NNW,337,0.0,1.0,29,0.00,,,0.00,Wunderground v.1.15,2013-11-21 22:51:00,
2013-11-21 14:57:00,34.4,4.6,30.66,NNW,337,0.0,4.0,28,0.00,,,0.00,Wunderground v.1.15,2013-11-21 22:57:00,
2013-11-21 15:03:00,33.4,3.7,30.66,NNW,337,1.0,3.0,28,0.00,,,0.00,Wunderground v.1.15,2013-11-21 23:03:00,
2013-11-21 15:09:00,33.3,4.4,30.66,NNW,337,1.0,3.0,29,0.00,,,0.00,Wunderground v.1.15,2013-11-21 23:09:00,
2013-11-21 15:15:00,32.8,4.7,30.66,NNW,337,1.0,3.0,30,0.00,,,0.00,Wunderground v.1.15,2013-11-21 23:15:00,
2013-11-21 15:21:00,32.6,3.8,30.66,NNW,337,1.0,2.0,29,0.00,,,0.00,Wunderground v.1.15,2013-11-21 23:21:00,
2013-11-21 15:27:00,32.3,4.3,30.67,NNW,337,1.0,2.0,30,0.00,,,0.00,Wunderground v.1.15,2013-11-21 23:27:00,
2013-11-21 15:33:00,32.3,4.3,30.67,NNW,337,1.0,3.0,30,0.00,,,0.00,Wunderground v.1.15,2013-11-21 23:33:00,
2013-11-21 15:39:00,32.1,4.1,30.67,NNW,337,0.0,3.0,30,0.00,,,0.00,Wunderground v.1.15,2013-11-21 23:39:00,
2013-11-21 15:45:00,31.8,4.5,30.67,NNW,337,1.0,1.0,31,0.00,,,0.00,Wunderground v.1.15,2013-11-21 23:45:00,
2013-11-21 15:51:00,31.7,5.2,30.67,NNW,337,0.0,0.0,32,0.00,,,0.00,Wunderground v.1.15,2013-11-21 23:51:00,
2013-11-21 15:57:00,31.4,4.9,30.67,NNW,337,0.0,1.0,32,0.00,,,0.00,Wunderground v.1.15,2013-11-21 23:57:00,
2013-11-21 16:03:00,31.3,5.5,30.67,NNW,337,0.0,1.0,33,0.00,,,0.00,Wunderground v.1.15,2013-11-22 00:03:00,
2013-11-21 16:09:00,31.0,5.2,30.67,NNW,337,0.0,1.0,33,0.00,,,0.00,Wunderground v.1.15,2013-11-22 00:09:00,
2013-11-21 16:16:00,30.4,5.3,30.67,NNW,337,0.0,1.0,34,0.00,,,0.00,Wunderground v.1.15,2013-11-22 00:16:00,
2013-11-21 16:22:00,29.7,5.3,30.68,NNW,337,0.0,0.0,35,0.00,,,0.00,Wunderground v.1.15,2013-11-22 00:22:00,
2013-11-21 16:28:00,28.7,5.7,30.68,NNW,337,0.0,0.0,37,0.00,,,0.00,Wunderground v.1.15,2013-11-22 00:28:00,
2013-11-21 16:34:00,28.1,5.7,30.68,NNW,337,0.0,0.0,38,0.00,,,0.00,Wunderground v.1.15,2013-11-22 00:34:00,
2013-11-21 16:40:00,27.6,5.8,30.68,NNW,337,0.0,0.0,39,0.00,,,0.00,Wunderground v.1.15,2013-11-22 00:40:00,
2013-11-21 16:46:00,27.2,6.0,30.68,NNW,337,0.0,1.0,40,0.00,,,0.00,Wunderground v.1.15,2013-11-22 00:46:00,
2013-11-21 16:52:00,26.8,6.2,30.69,NNW,337,0.0,0.0,41,0.00,,,0.00,Wunderground v.1.15,2013-11-22 00:52:00,
2013-11-21 16:58:00,26.5,5.9,30.68,NNW,337,0.0,0.0,41,0.00,,,0.00,Wunderground v.1.15,2013-11-22 00:58:00,
2013-11-21 17:04:00,26.3,6.8,30.68,NNW,337,0.0,0.0,43,0.00,,,0.00,Wunderground v.1.15,2013-11-22 01:04:00,
2013-11-21 17:10:00,26.0,6.5,30.69,NNW,337,0.0,0.0,43,0.00,,,0.00,Wunderground v.1.15,2013-11-22 01:10:00,
2013-11-21 17:16:00,25.9,6.4,30.68,NNW,337,0.0,0.0,43,0.00,,,0.00,Wunderground v.1.15,2013-11-22 01:16:00,
2013-11-21 17:22:00,25.8,6.3,30.69,NNW,337,0.0,0.0,43,0.00,,,0.00,Wunderground v.1.15,2013-11-22 01:22:00,
2013-11-21 17:28:00,25.6,6.7,30.69,NNW,337,0.0,0.0,44,0.00,,,0.00,Wunderground v.1.15,2013-11-22 01:28:00,
2013-11-21 17:34:00,25.1,6.2,30.70,NNW,337,0.0,0.0,44,0.00,,,0.00,Wunderground v.1.15,2013-11-22 01:34:00,
2013-11-21 17:40:00,24.5,5.7,30.70,NNW,337,0.0,0.0,44,0.00,,,0.00,Wunderground v.1.15,2013-11-22 01:40:00,
2013-11-21 17:46:00,24.2,5.9,30.70,NNW,337,0.0,0.0,45,0.00,,,0.00,Wunderground v.1.15,2013-11-22 01:46:00,
2013-11-21 17:52:00,23.9,5.6,30.70,NNW,337,0.0,0.0,45,0.00,,,0.00,Wunderground v.1.15,2013-11-22 01:52:00,
2013-11-21 17:58:00,23.6,5.8,30.70,NNW,337,0.0,0.0,46,0.00,,,0.00,Wunderground v.1.15,2013-11-22 01:58:00,
2013-11-21 18:04:00,23.4,6.1,30.71,NNW,337,0.0,0.0,47,0.00,,,0.00,Wunderground v.1.15,2013-11-22 02:04:00,
2013-11-21 18:10:00,23.1,5.8,30.72,NNW,337,0.0,0.0,47,0.00,,,0.00,Wunderground v.1.15,2013-11-22 02:10:00,
2013-11-21 18:12:00,23.0,6.2,30.72,NNW,337,0.0,0.0,48,0.00,,,0.00,Wunderground v.1.15,2013-11-22 02:12:00,
2013-11-21 18:14:00,22.9,6.1,30.72,NNW,337,0.0,0.0,48,0.00,,,0.00,Wunderground v.1.15,2013-11-22 02:14:00,
2013-11-21 18:18:00,22.7,5.9,30.72,NNW,337,0.0,0.0,48,0.00,,,0.00,Wunderground v.1.15,2013-11-22 02:18:00,
2013-11-21 18:24:00,22.5,5.7,30.72,NNW,337,0.0,0.0,48,0.00,,,0.00,Wunderground v.1.15,2013-11-22 02:24:00,
2013-11-21 18:30:00,22.1,5.4,30.72,NNW,337,0.0,1.0,48,0.00,,,0.00,Wunderground v.1.15,2013-11-22 02:30:00,
2013-11-21 18:36:00,21.8,5.5,30.72,NNW,337,0.0,0.0,49,0.00,,,0.00,Wunderground v.1.15,2013-11-22 02:36:00,
2013-11-21 18:38:00,21.6,5.4,30.72,NNW,337,0.0,0.0,49,0.00,,,0.00,Wunderground v.1.15,2013-11-22 02:38:00,
2013-11-21 18:44:00,21.2,5.4,30.72,NNW,337,0.0,0.0,50,0.00,,,0.00,Wunderground v.1.15,2013-11-22 02:44:00,
2013-11-21 18:50:00,20.9,5.6,30.73,NNW,337,0.0,0.0,51,0.00,,,0.00,Wunderground v.1.15,2013-11-22 02:50:00,
2013-11-21 18:52:00,20.7,5.8,30.73,NNW,337,0.0,0.0,52,0.00,,,0.00,Wunderground v.1.15,2013-11-22 02:52:00,
2013-11-21 18:58:00,20.5,5.6,30.73,NNW,337,0.0,0.0,52,0.00,,,0.00,Wunderground v.1.15,2013-11-22 02:58:00,
2013-11-21 19:04:00,20.4,6.0,30.73,NNW,337,0.0,0.0,53,0.00,,,0.00,Wunderground v.1.15,2013-11-22 03:04:00,
2013-11-21 19:10:00,20.2,4.9,30.73,NNW,337,0.0,0.0,51,0.00,,,0.00,Wunderground v.1.15,2013-11-22 03:10:00,
2013-11-21 19:16:00,20.2,5.4,30.73,NNW,337,0.0,0.0,52,0.00,,,0.00,Wunderground v.1.15,2013-11-22 03:16:00,
2013-11-21 19:22:00,20.0,5.6,30.73,NNW,337,0.0,0.0,53,0.00,,,0.00,Wunderground v.1.15,2013-11-22 03:22:00,
2013-11-21 19:28:00,19.7,5.3,30.73,NNW,337,0.0,0.0,53,0.00,,,0.00,Wunderground v.1.15,2013-11-22 03:28:00,
2013-11-21 19:34:00,19.3,5.7,30.73,NNW,337,1.0,2.0,55,0.00,,,0.00,Wunderground v.1.15,2013-11-22 03:34:00,
2013-11-21 19:40:00,18.8,5.7,30.74,NNW,337,1.0,2.0,56,0.00,,,0.00,Wunderground v.1.15,2013-11-22 03:40:00,
2013-11-21 19:46:00,18.5,5.8,30.74,NNW,337,0.0,0.0,57,0.00,,,0.00,Wunderground v.1.15,2013-11-22 03:46:00,
2013-11-21 19:52:00,18.2,5.5,30.74,NNW,337,0.0,2.0,57,0.00,,,0.00,Wunderground v.1.15,2013-11-22 03:52:00,
2013-11-21 19:58:00,18.1,5.8,30.74,NNW,337,1.0,2.0,58,0.00,,,0.00,Wunderground v.1.15,2013-11-22 03:58:00,
2013-11-21 20:04:00,17.7,5.4,30.74,NNW,337,1.0,1.0,58,0.00,,,0.00,Wunderground v.1.15,2013-11-22 04:04:00,
2013-11-21 20:10:00,17.3,5.4,30.74,NNW,337,0.0,1.0,59,0.00,,,0.00,Wunderground v.1.15,2013-11-22 04:10:00,
2013-11-21 20:16:00,17.1,5.6,30.75,NNW,337,1.0,1.0,60,0.00,,,0.00,Wunderground v.1.15,2013-11-22 04:16:00,
2013-11-21 20:22:00,16.8,5.3,30.74,NNW,337,1.0,1.0,60,0.00,,,0.00,Wunderground v.1.15,2013-11-22 04:22:00,
2013-11-21 20:28:00,16.6,5.5,30.75,NNW,337,0.0,1.0,61,0.00,,,0.00,Wunderground v.1.15,2013-11-22 04:28:00,
2013-11-21 20:34:00,16.4,5.3,30.75,NNW,337,0.0,0.0,61,0.00,,,0.00,Wunderground v.1.15,2013-11-22 04:34:00,
2013-11-21 20:40:00,16.3,5.2,30.75,NNW,337,0.0,1.0,61,0.00,,,0.00,Wunderground v.1.15,2013-11-22 04:40:00,
2013-11-21 20:46:00,16.2,5.1,30.75,NNW,337,1.0,1.0,61,0.00,,,0.00,Wunderground v.1.15,2013-11-22 04:46:00,
2013-11-21 20:52:00,15.9,5.2,30.75,NNW,337,1.0,2.0,62,0.00,,,0.00,Wunderground v.1.15,2013-11-22 04:52:00,
2013-11-21 20:58:00,15.7,5.3,30.75,NNW,337,1.0,2.0,63,0.00,,,0.00,Wunderground v.1.15,2013-11-22 04:58:00,
2013-11-21 21:02:00,15.6,5.2,30.75,NNW,337,1.0,1.0,63,0.00,,,0.00,Wunderground v.1.15,2013-11-22 05:02:00,
2013-11-21 21:04:00,15.6,5.2,30.75,NNW,337,1.0,1.0,63,0.00,,,0.00,Wunderground v.1.15,2013-11-22 05:04:00,
2013-11-21 21:06:00,15.6,5.2,30.75,NNW,337,0.0,1.0,63,0.00,,,0.00,Wunderground v.1.15,2013-11-22 05:06:00,
2013-11-21 21:12:00,15.5,5.1,30.75,NNW,337,0.0,0.0,63,0.00,,,0.00,Wunderground v.1.15,2013-11-22 05:12:00,
2013-11-21 21:18:00,15.4,5.4,30.75,NNW,337,1.0,2.0,64,0.00,,,0.00,Wunderground v.1.15,2013-11-22 05:18:00,
2013-11-21 21:22:00,15.4,5.0,30.75,NNW,337,1.0,1.0,63,0.00,,,0.00,Wunderground v.1.15,2013-11-22 05:22:00,
2013-11-21 21:26:00,15.3,4.9,30.75,NNW,337,1.0,1.0,63,0.00,,,0.00,Wunderground v.1.15,2013-11-22 05:26:00,
2013-11-21 21:32:00,15.3,5.3,30.76,NNW,337,0.0,0.0,64,0.00,,,0.00,Wunderground v.1.15,2013-11-22 05:32:00,
2013-11-21 21:38:00,15.3,5.3,30.76,NNW,337,0.0,0.0,64,0.00,,,0.00,Wunderground v.1.15,2013-11-22 05:38:00,
2013-11-21 21:44:00,15.1,5.1,30.76,NNW,337,1.0,1.0,64,0.00,,,0.00,Wunderground v.1.15,2013-11-22 05:44:00,
2013-11-21 21:46:00,15.1,5.1,30.76,NNW,337,1.0,1.0,64,0.00,,,0.00,Wunderground v.1.15,2013-11-22 05:46:00,
2013-11-21 21:52:00,14.8,5.2,30.76,NNW,337,1.0,1.0,65,0.00,,,0.00,Wunderground v.1.15,2013-11-22 05:52:00,
2013-11-21 21:58:00,14.5,4.9,30.76,NNW,337,1.0,1.0,65,0.00,,,0.00,Wunderground v.1.15,2013-11-22 05:58:00,
2013-11-21 22:04:00,14.1,4.8,30.76,NNW,337,1.0,3.0,66,0.00,,,0.00,Wunderground v.1.15,2013-11-22 06:04:00,
2013-11-21 22:10:00,13.8,4.9,30.76,NNW,337,1.0,3.0,67,0.00,,,0.00,Wunderground v.1.15,2013-11-22 06:10:00,
2013-11-21 22:16:00,13.5,5.2,30.76,NNW,337,0.0,1.0,69,0.00,,,0.00,Wunderground v.1.15,2013-11-22 06:16:00,
2013-11-21 22:22:00,13.2,4.9,30.76,NNW,337,0.0,1.0,69,0.00,,,0.00,Wunderground v.1.15,2013-11-22 06:22:00,
2013-11-21 22:28:00,13.3,5.0,30.76,NNW,337,1.0,1.0,69,0.00,,,0.00,Wunderground v.1.15,2013-11-22 06:28:00,
2013-11-21 22:34:00,13.5,4.9,30.76,NNW,337,1.0,1.0,68,0.00,,,0.00,Wunderground v.1.15,2013-11-22 06:34:00,
2013-11-21 22:40:00,13.7,4.8,30.76,NNW,337,2.0,2.0,67,0.00,,,0.00,Wunderground v.1.15,2013-11-22 06:40:00,
2013-11-21 22:46:00,13.7,4.8,30.76,NNW,337,2.0,2.0,67,0.00,,,0.00,Wunderground v.1.15,2013-11-22 06:46:00,
2013-11-21 22:52:00,13.6,4.7,30.76,NNW,336,2.0,2.0,67,0.00,,,0.00,Wunderground v.1.15,2013-11-22 06:52:00,
2013-11-21 22:58:00,13.4,4.8,30.76,NNW,336,2.0,3.0,68,0.00,,,0.00,Wunderground v.1.15,2013-11-22 06:58:00,
2013-11-21 23:04:00,13.1,4.8,30.76,NNW,331,2.0,2.0,69,0.00,,,0.00,Wunderground v.1.15,2013-11-22 07:04:00,
2013-11-21 23:10:00,12.9,4.6,30.76,NW,321,3.0,3.0,69,0.00,,,0.00,Wunderground v.1.15,2013-11-22 07:10:00,
2013-11-21 23:16:00,12.8,4.9,30.76,NW,319,3.0,3.0,70,0.00,,,0.00,Wunderground v.1.15,2013-11-22 07:16:00,
2013-11-21 23:22:00,12.6,4.7,30.75,NW,312,3.0,4.0,70,0.00,,,0.00,Wunderground v.1.15,2013-11-22 07:22:00,
2013-11-21 23:28:00,12.2,4.6,30.75,NW,309,3.0,4.0,71,0.00,,,0.00,Wunderground v.1.15,2013-11-22 07:28:00,
2013-11-21 23:34:00,11.9,4.3,30.76,NW,309,3.0,3.0,71,0.00,,,0.00,Wunderground v.1.15,2013-11-22 07:34:00,
2013-11-21 23:40:00,11.7,4.4,30.76,NW,309,1.0,3.0,72,0.00,,,0.00,Wunderground v.1.15,2013-11-22 07:40:00,
2013-11-21 23:46:00,11.6,4.6,30.75,NW,309,1.0,3.0,73,0.00,,,0.00,Wunderground v.1.15,2013-11-22 07:46:00,
2013-11-21 23:52:00,11.4,4.4,30.75,NW,309,1.0,2.0,73,0.00,,,0.00,Wunderground v.1.15,2013-11-22 07:52:00,
2013-11-21 23:58:00,11.2,4.2,30.75,NW,309,1.0,2.0,73,0.00,,,0.00,Wunderground v.1.15,2013-11-22 07:58:00,